Tracking 20715 objects as of 26-May-2020
HD Live streaming from Space Station
objects crossing your sky now

INTELSAT 602

Track INTELSAT 602 now!
INTELSAT 602 is classified as:


NORAD ID: 20315
Int'l Code: 1989-087A
Perigee: 36,141.1 km
Apogee: 36,163.6 km
Inclination: 13.1 °
Period: 1,454.5 minutes
Semi major axis: 42523 km
RCS: 19.9526 m2 (large)
Launch date: October 27, 1989
Source: International Telecommunications Satellite Organization (ITSO)
Launch site: FRENCH GUIANA (FRGUI)

Inclined orbit; Indian Ocean region; C-band and Ku-band broadcasting.
aabbcc
Your satellite tracking list
Your tracking list is empty




NASA's NSSDC Master Catalog

Two Line Element Set (TLE):
1 20315U 89087A   20145.56993780 -.00000169 +00000-0 +00000-0 0  9999
2 20315 013.0708 023.3405 0002643 047.9529 128.6590 00.99006089109394
Source of the keplerian elements: AFSPC